Content
SEND FEEDBACK

Daily
Averages
Monthly
Summary
United States of America

ESTILL SPRINGS, TENNESSEE


Home > North America > United States > Tennessee
Elevation: 1053 feet     Latitude: 35 21N     Longitude: 086 12W

WEATHER
 
SELECT A DAY
Number of Records: 53,580;   Date Range: 9/2/10 - 7/21/14
 
SHARE

PRINT THIS DATA

[ ← Previous Day ]
WEATHER ALMANAC - MARCH 14, 2014
[ Next Day → ]
[ °C ]   °F
Weather ElementAverageHighLow
Temperature48.8 °F64.4 °F (1:55 pm)28.4 °F (4:35 am)
Dewpoint27.2 °F35.6 °F (8:55 pm)21.2 °F (12:35 am)
Humidity47.9 %86 % (6:15 am)22 % (3:15 pm)
Barometer30.14 in30.22 in (9:35 am)30.05 in (3:35 pm)
Wind Speed8.8 mph20.7 mph (12:55 pm)
Wind Gust23 mph (8:15 pm)
Weather ElementAverage
Visibility10 mi
Wind DirectionSSE (163.2 °)

Weather ElementTotal
Precipitation---
Heating Degree Days18.6 (Base 65)
Averaged from 71 records on March 14, 2014
WEATHER CONDITIONS BREAKOUT
WIND DIRECTION BREAKOUT
WEATHER BY HOUR - MARCH 14, 2014
[ °C ]   °F
Local TimeTemperatureDewpointHumidityBarometerVisibilityWind DirectionWind SpeedGust SpeedPrecipitationEventsConditions
12:35 AM33.8 °F21.2 °F60 %30.19 in10.0 miSSE (160°)3.5 mphClear
12:55 AM32.0 °F23.0 °F69 %30.19 in10.0 miCalmClear
1:15 AM32.0 °F23.0 °F69 %30.19 in10.0 miSSE (160°)3.5 mphClear
1:35 AM32.0 °F23.0 °F69 %30.19 in10.0 miCalmClear
1:55 AM32.0 °F23.0 °F69 %30.18 in10.0 miCalmClear
2:15 AM30.2 °F23.0 °F75 %30.19 in10.0 miCalmClear
2:35 AM30.2 °F23.0 °F75 %30.19 in10.0 miCalmClear
2:55 AM32.0 °F21.2 °F64 %30.19 in10.0 miCalmClear
3:15 AM30.2 °F23.0 °F75 %30.18 in10.0 miSSE (160°)3.5 mphClear
3:35 AM30.2 °F23.0 °F75 %30.18 in10.0 miSSE (160°)3.5 mphClear
3:55 AM30.2 °F23.0 °F75 %30.18 in10.0 miSE (140°)3.5 mphClear
4:15 AM30.2 °F23.0 °F75 %30.18 in10.0 miCalmClear
4:35 AM28.4 °F23.0 °F80 %30.18 in10.0 miCalmClear
4:55 AM28.4 °F23.0 °F80 %30.18 in10.0 miCalmClear
5:15 AM30.2 °F23.0 °F75 %30.18 in10.0 miCalmClear
5:35 AM28.4 °F23.0 °F80 %30.18 in10.0 miCalmClear
5:55 AM28.4 °F21.2 °F74 %30.19 in10.0 miCalmClear
6:15 AM28.4 °F24.8 °F86 %30.18 in10.0 miCalmClear
6:35 AM32.0 °F23.0 °F69 %30.18 in10.0 miSSE (160°)3.5 mphClear
6:55 AM33.8 °F23.0 °F65 %30.18 in10.0 miSSE (160°)4.6 mphClear
7:15 AM33.8 °F24.8 °F70 %30.18 in10.0 miSouth (180°)5.8 mphClear
7:35 AM35.6 °F24.8 °F65 %30.20 in10.0 miSouth (170°)5.8 mphClear
7:55 AM39.2 °F26.6 °F61 %30.20 in10.0 miSouth (170°)6.9 mphClear
8:15 AM41.0 °F28.4 °F61 %30.21 in10.0 miSouth (180°)4.6 mphClear
8:35 AM42.8 °F28.4 °F57 %30.21 in10.0 miSouth (180°)6.9 mphClear
8:55 AM46.4 °F28.4 °F50 %30.21 in10.0 miSSW (200°)10.4 mphClear
9:15 AM48.2 °F28.4 °F46 %30.21 in10.0 miSSW (200°)10.4 mphClear
9:35 AM50.0 °F26.6 °F40 %30.22 in10.0 miSSW (210°)13.8 mphClear
9:55 AM53.6 °F28.4 °F38 %30.22 in10.0 miSSW (200°)12.7 mphClear
10:15 AM55.4 °F28.4 °F36 %30.21 in10.0 miSSW (200°)11.5 mphClear
10:35 AM55.4 °F28.4 °F36 %30.20 in10.0 miSSW (210°)13.8 mphClear
10:55 AM57.2 °F28.4 °F33 %30.20 in10.0 miSW (230°)16.1 mphClear
11:15 AM57.2 °F28.4 °F33 %30.20 in10.0 miSW (230°)18.4 mphClear
11:35 AM59.0 °F28.4 °F31 %30.19 in10.0 miSSW (200°)15.0 mphClear
11:55 AM60.8 °F28.4 °F29 %30.17 in10.0 miSouth (190°)17.3 mphClear
12:15 PM60.8 °F28.4 °F29 %30.17 in10.0 miSouth (190°)13.8 mphClear
12:35 PM60.8 °F26.6 °F27 %30.16 in10.0 miSW (230°)16.1 mphClear
12:55 PM62.6 °F26.6 °F26 %30.15 in10.0 miSW (230°)20.7 mphClear
1:15 PM62.6 °F26.6 °F26 %30.13 in10.0 miSW (230°)16.1 mphClear
1:35 PM62.6 °F26.6 °F26 %30.12 in10.0 miSSW (210°)13.8 mphClear
1:55 PM64.4 °F26.6 °F24 %30.10 in10.0 miSSW (200°)10.4 mphClear
2:15 PM64.4 °F26.6 °F24 %30.09 in10.0 miSouth (190°)13.8 mphClear
2:35 PM64.4 °F26.6 °F24 %30.08 in10.0 miSW (220°)13.8 mphClear
2:55 PM64.4 °F26.6 °F24 %30.07 in10.0 miSW (230°)18.4 mphClear
3:15 PM64.4 °F24.8 °F22 %30.06 in10.0 miSSW (210°)16.1 mphClear
3:35 PM64.4 °F26.6 °F24 %30.05 in10.0 miSouth (190°)13.8 mphClear
3:55 PM64.4 °F26.6 °F24 %30.05 in10.0 miSSW (200°)17.3 mphClear
4:15 PM64.4 °F26.6 °F24 %30.05 in10.0 miSSW (210°)17.3 mphClear
4:35 PM62.6 °F26.6 °F26 %30.05 in10.0 miSW (220°)15.0 mphClear
4:55 PM64.4 °F26.6 °F24 %30.05 in10.0 miSSW (200°)15.0 mphClear
5:15 PM62.6 °F26.6 °F26 %30.06 in10.0 miWSW (240°)18.4 mphClear
5:35 PM60.8 °F26.6 °F27 %30.07 in10.0 miSW (220°)13.8 mphClear
5:55 PM60.8 °F26.6 °F27 %30.08 in10.0 miWSW (240°)13.8 mphClear
6:15 PM60.8 °F28.4 °F29 %30.07 in10.0 miSW (220°)10.4 mphPartly Cloudy
6:35 PM60.8 °F28.4 °F29 %30.08 in10.0 miSW (220°)10.4 mphPartly Cloudy
6:55 PM59.0 °F28.4 °F31 %30.09 in10.0 miSW (220°)8.1 mphScattered Clouds
7:15 PM59.0 °F28.4 °F31 %30.09 in10.0 miSW (220°)6.9 mphScattered Clouds
7:35 PM57.2 °F28.4 °F33 %30.09 in10.0 miSW (220°)8.1 mphMostly Cloudy
7:55 PM59.0 °F28.4 °F31 %30.09 in10.0 miWSW (250°)18.4 mphMostly Cloudy
8:15 PM59.0 °F28.4 °F31 %30.09 in10.0 miWSW (240°)13.8 mph23.0 mphMostly Cloudy
8:35 PM57.2 °F33.8 °F41 %30.10 in10.0 miSW (230°)18.4 mphMostly Cloudy
8:55 PM55.4 °F35.6 °F47 %30.09 in10.0 miSW (230°)8.1 mphScattered Clouds
9:15 PM53.6 °F35.6 °F51 %30.09 in10.0 miSSW (210°)10.4 mphClear
9:35 PM53.6 °F35.6 °F51 %30.09 in10.0 miSSW (210°)8.1 mphClear
9:55 PM51.8 °F35.6 °F54 %30.09 in10.0 miSSW (210°)5.8 mphClear
10:15 PM51.8 °F33.8 °F50 %30.09 in10.0 miSSW (200°)6.9 mphClear
10:35 PM50.0 °F33.8 °F54 %30.09 in10.0 miSouth (190°)3.5 mphClear
10:55 PM50.0 °F33.8 °F54 %30.09 in10.0 miSSW (210°)4.6 mphClear
11:15 PM48.2 °F33.8 °F58 %30.10 in10.0 miSSW (210°)4.6 mphClear
11:35 PM48.2 °F35.6 °F62 %30.10 in10.0 miCalmScattered Clouds
11:55 PM46.4 °F35.6 °F66 %30.09 in10.0 miSouth (190°)4.6 mphPartly Cloudy
Hourly data recorded from KTHA, located miles away from Estill Springs, Tennessee







STORIES FROM OUR PARTNERS